QPF
0.00 0.00 0.00 0.00 0.00 0.00 0.00 0.00 0.00 0.00 0.00 0.00 0.01 0.01 0.01 0.01 0.01 0.01 0.01 0.01 0.01 0.01 0.02 0.03 0.04 0.05 0.06 0.09 0.12 0.15 0.17 0.17 0.16 0.15 0.16 0.16 0.13 0.10 0.08 0.06 0.04 0.03 0.02
0.00 0.00 0.00 0.00 0.00 0.00 0.00 0.00 0.00 0.00 0.00 0.00 0.00 0.01 0.01 0.01 0.02 0.02 0.02 0.02 0.02 0.01 0.02 0.02 0.03 0.04 0.05 0.06 0.09 0.11 0.12 0.14 0.15 0.16 0.18 0.19 0.18 0.16 0.13 0.08 0.05 0.04 0.02
0.00 0.00 0.00 0.00 0.00 0.00 0.00 0.00 0.00 0.00 0.00 0.00 0.00 0.00 0.01 0.01 0.01 0.02 0.03 0.02 0.02 0.02 0.02 0.02 0.02 0.03 0.04 0.05 0.06 0.08 0.09 0.10 0.11 0.13 0.17 0.18 0.20 0.23 0.17 0.10 0.07 0.04 0.03
0.00 0.00 0.00 0.00 0.00 0.00 0.00 0.00 0.00 0.00 0.00 0.00 0.00 0.00 0.00 0.01 0.01 0.02 0.02 0.02 0.03 0.02 0.02 0.02 0.02 0.02 0.02 0.03 0.04 0.06 0.07 0.09 0.11 0.13 0.16 0.20 0.20 0.21 0.20 0.11 0.07 0.04 0.02
0.00 0.00 0.00 0.00 0.00 0.00 0.00 0.00 0.00 0.00 0.00 0.00 0.00 0.00 0.00 0.01 0.01 0.02 0.05 0.04 0.03 0.03 0.03 0.02 0.03 0.04 0.03 0.03 0.03 0.04 0.06 0.08 0.11 0.13 0.14 0.19 0.24 0.22 0.16 0.13 0.08 0.05 0.03
0.00 0.00 0.00 0.00 0.00 0.00 0.00 0.00 0.00 0.00 0.00 0.00 0.00 0.00 0.01 0.01 0.01 0.02 0.04 0.05 0.05 0.04 0.04 0.03 0.02 0.04 0.05 0.04 0.03 0.03 0.05 0.07 0.09 0.10 0.13 0.17 0.20 0.20 0.19 0.17 0.11 0.06 0.03
0.00 0.00 0.00 0.00 0.00 0.00 0.00 0.00 0.00 0.00 0.00 0.00 0.00 0.00 0.01 0.01 0.02 0.03 0.03 0.04 0.04 0.05 0.05 0.04 0.03 0.02 0.04 0.05 0.05 0.04 0.04 0.05 0.08 0.10 0.12 0.13 0.16 0.22 0.20 0.18 0.14 0.09 0.05
0.00 0.00 0.00 0.00 0.00 0.00 0.00 0.00 0.00 0.00 0.01 0.00 0.00 0.01 0.01 0.01 0.03 0.03 0.03 0.03 0.03 0.03 0.04 0.06 0.05 0.03 0.03 0.04 0.05 0.05 0.05 0.04 0.05 0.07 0.10 0.12 0.14 0.18 0.22 0.20 0.19 0.14 0.09
0.00 0.00 0.00 0.00 0.00 0.00 0.00 0.00 0.00 0.00 0.00 0.00 0.01 0.01 0.01 0.02 0.03 0.03 0.03 0.03 0.03 0.03 0.04 0.05 0.06 0.05 0.03 0.04 0.04 0.04 0.04 0.04 0.04 0.05 0.07 0.11 0.16 0.17 0.20 0.22 0.20 0.17 0.11
0.00 0.00 0.00 0.00 0.00 0.00 0.00 0.00 0.00 0.01 0.01 0.01 0.01 0.01 0.02 0.02 0.03 0.04 0.04 0.03 0.03 0.03 0.04 0.05 0.06 0.06 0.05 0.05 0.04 0.03 0.03 0.03 0.03 0.03 0.04 0.07 0.10 0.15 0.16 0.20 0.22 0.18 0.13
0.00 0.00 0.00 0.00 0.00 0.00 0.01 0.01 0.01 0.01 0.01 0.01 0.01 0.01 0.01 0.02 0.02 0.03 0.03 0.03 0.03 0.04 0.04 0.05 0.05 0.05 0.05 0.05 0.04 0.03 0.02 0.02 0.03 0.03 0.03 0.04 0.05 0.09 0.13 0.15 0.19 0.20 0.14
0.00 0.00 0.00 0.00 0.00 0.00 0.00 0.01 0.01 0.01 0.01 0.01 0.01 0.01 0.01 0.02 0.02 0.01 0.01 0.01 0.03 0.04 0.05 0.06 0.06 0.05 0.04 0.05 0.04 0.03 0.02 0.02 0.02 0.02 0.03 0.04 0.04 0.05 0.09 0.13 0.15 0.16 0.15
0.00 0.00 0.00 0.00 0.00 0.01 0.01 0.01 0.01 0.01 0.01 0.01 0.01 0.01 0.02 0.03 0.02 0.01 0.01 0.01 0.02 0.03 0.05 0.06 0.06 0.05 0.04 0.04 0.04 0.03 0.03 0.02 0.01 0.01 0.01 0.02 0.03 0.04 0.06 0.09 0.14 0.16 0.16
0.00 0.00 0.00 0.00 0.00 0.01 0.01 0.01 0.01 0.01 0.01 0.01 0.01 0.01 0.02 0.02 0.02 0.02 0.01 0.01 0.01 0.01 0.03 0.05 0.06 0.05 0.04 0.04 0.03 0.02 0.02 0.01 0.01 0.00 0.01 0.02 0.03 0.05 0.06 0.08 0.09 0.11 0.14
0.00 0.00 0.00 0.00 0.01 0.01 0.01 0.01 0.01 0.01 0.01 0.00 0.00 0.01 0.01 0.01 0.01 0.01 0.02 0.02 0.01 0.01 0.02 0.04 0.05 0.05 0.03 0.02 0.02 0.02 0.01 0.01 0.00 0.00 0.00 0.01 0.03 0.05 0.08 0.08 0.08 0.08 0.09
0.00 0.00 0.00 0.00 0.00 0.01 0.01 0.01 0.01 0.01 0.01 0.00 0.00 0.00 0.00 0.01 0.01 0.01 0.01 0.01 0.02 0.02 0.03 0.04 0.04 0.04 0.03 0.02 0.01 0.01 0.01 0.01 0.00 0.00 0.00 0.01 0.02 0.04 0.08 0.10 0.08 0.08 0.08
0.00 0.00 0.00 0.00 0.01 0.01 0.01 0.01 0.01 0.01 0.01 0.00 0.00 0.00 0.00 0.01 0.01 0.01 0.02 0.02 0.02 0.01 0.02 0.03 0.03 0.03 0.03 0.03 0.02 0.02 0.01 0.01 0.01 0.01 0.00 0.01 0.02 0.04 0.09 0.11 0.10 0.08 0.10
0.00 0.00 0.00 0.01 0.01 0.01 0.01 0.01 0.02 0.02 0.02 0.01 0.01 0.00 0.00 0.01 0.01 0.01 0.02 0.02 0.02 0.01 0.02 0.02 0.02 0.02 0.02 0.02 0.02 0.02 0.02 0.02 0.01 0.01 0.01 0.01 0.02 0.04 0.08 0.12 0.11 0.08 0.10
0.00 0.00 0.00 0.01 0.01 0.01 0.01 0.01 0.01 0.02 0.02 0.02 0.01 0.01 0.01 0.01 0.01 0.01 0.01 0.01 0.01 0.01 0.01 0.01 0.01 0.01 0.01 0.01 0.01 0.02 0.02 0.02 0.03 0.02 0.02 0.02 0.03 0.04 0.07 0.09 0.12 0.12 0.11
0.00 0.00 0.00 0.01 0.01 0.01 0.01 0.01 0.01 0.01 0.02 0.02 0.02 0.01 0.00 0.01 0.01 0.01 0.02 0.01 0.02 0.02 0.02 0.02 0.01 0.01 0.01 0.01 0.02 0.03 0.03 0.03 0.04 0.03 0.03 0.02 0.04 0.05 0.07 0.09 0.11 0.12 0.11
0.00 0.00 0.00 0.01 0.01 0.01 0.01 0.01 0.01 0.01 0.02 0.02 0.02 0.01 0.01 0.01 0.01 0.01 0.01 0.01 0.02 0.02 0.02 0.03 0.02 0.03 0.03 0.03 0.04 0.05 0.06 0.05 0.04 0.04 0.04 0.03 0.05 0.07 0.08 0.09 0.12 0.12 0.11
0.00 0.00 0.01 0.01 0.01 0.01 0.01 0.01 0.01 0.01 0.02 0.02 0.02 0.01 0.01 0.01 0.02 0.02 0.02 0.02 0.02 0.02 0.03 0.02 0.02 0.03 0.04 0.06 0.05 0.07 0.08 0.07 0.06 0.05 0.04 0.05 0.07 0.10 0.10 0.10 0.13 0.14 0.15
0.00 0.00 0.01 0.01 0.01 0.01 0.01 0.01 0.01 0.01 0.02 0.02 0.02 0.02 0.01 0.02 0.02 0.03 0.03 0.03 0.03 0.03 0.03 0.02 0.02 0.04 0.05 0.05 0.05 0.06 0.07 0.07 0.07 0.05 0.05 0.06 0.08 0.11 0.12 0.12 0.14 0.15 0.17
0.00 0.00 0.01 0.01 0.01 0.01 0.01 0.01 0.01 0.01 0.02 0.02 0.03 0.03 0.02 0.02 0.03 0.04 0.03 0.02 0.02 0.02 0.02 0.02 0.03 0.04 0.04 0.04 0.05 0.05 0.06 0.06 0.06 0.06 0.07 0.07 0.09 0.12 0.15 0.14 0.14 0.15 0.17
0.00 0.01 0.01 0.01 0.01 0.01 0.01 0.01 0.01 0.02 0.02 0.02 0.03 0.04 0.03 0.02 0.03 0.04 0.04 0.03 0.02 0.03 0.02 0.03 0.03 0.03 0.04 0.04 0.04 0.05 0.07 0.08 0.08 0.09 0.09 0.09 0.10 0.13 0.15 0.14 0.15 0.18 0.18
0.00 0.00 0.00 0.01 0.01 0.01 0.01 0.01 0.01 0.01 0.02 0.02 0.03 0.03 0.02 0.02 0.02 0.02 0.03 0.03 0.03 0.03 0.04 0.04 0.04 0.05 0.05 0.05 0.06 0.07 0.09 0.09 0.09 0.11 0.11 0.11 0.12 0.15 0.16 0.16 0.18 0.19 0.19
MSLP
1012.11 1011.99 1011.90 1011.82 1011.72 1011.58 1011.41 1011.20 1010.96 1010.72 1010.47 1010.24 1010.02 1009.81 1009.62 1009.46 1009.33 1009.25 1009.22 1009.27 1009.38 1009.55 1009.75 1009.94 1010.10 1010.18 1010.16 1010.03 1009.81 1009.52 1009.20 1008.90 1008.68 1008.56 1008.56 1008.70 1008.94 1009.28 1009.66 1010.05 1010.43 1010.79 1011.12
1012.05 1011.88 1011.74 1011.62 1011.49 1011.34 1011.16 1010.96 1010.74 1010.50 1010.26 1010.00 1009.75 1009.50 1009.25 1009.03 1008.84 1008.71 1008.66 1008.69 1008.80 1008.99 1009.22 1009.46 1009.66 1009.80 1009.84 1009.77 1009.61 1009.39 1009.14 1008.91 1008.74 1008.68 1008.73 1008.91 1009.18 1009.52 1009.91 1010.31 1010.69 1011.04 1011.36
1011.94 1011.75 1011.59 1011.43 1011.27 1011.09 1010.90 1010.70 1010.47 1010.24 1009.99 1009.73 1009.45 1009.17 1008.88 1008.61 1008.37 1008.20 1008.10 1008.10 1008.20 1008.38 1008.62 1008.88 1009.12 1009.30 1009.40 1009.40 1009.32 1009.17 1009.00 1008.85 1008.75 1008.74 1008.84 1009.04 1009.34 1009.69 1010.09 1010.49 1010.89 1011.26 1011.61
1011.79 1011.59 1011.41 1011.22 1011.02 1010.81 1010.60 1010.37 1010.14 1009.90 1009.65 1009.39 1009.10 1008.80 1008.49 1008.18 1007.91 1007.69 1007.55 1007.51 1007.58 1007.74 1007.97 1008.24 1008.50 1008.72 1008.88 1008.95 1008.95 1008.88 1008.79 1008.71 1008.68 1008.72 1008.84 1009.06 1009.36 1009.73 1010.13 1010.55 1010.97 1011.38 1011.77
1011.60 1011.40 1011.19 1010.96 1010.73 1010.47 1010.22 1009.97 1009.72 1009.47 1009.22 1008.96 1008.68 1008.37 1008.05 1007.73 1007.42 1007.17 1006.99 1006.91 1006.94 1007.07 1007.28 1007.54 1007.81 1008.07 1008.28 1008.42 1008.49 1008.51 1008.50 1008.49 1008.51 1008.58 1008.73 1008.95 1009.24 1009.60 1010.00 1010.43 1010.88 1011.33 1011.79
1011.37 1011.17 1010.93 1010.67 1010.38 1010.07 1009.77 1009.48 1009.20 1008.94 1008.69 1008.43 1008.16 1007.87 1007.55 1007.22 1006.90 1006.62 1006.40 1006.28 1006.26 1006.35 1006.53 1006.78 1007.07 1007.36 1007.62 1007.82 1007.98 1008.08 1008.14 1008.19 1008.25 1008.35 1008.50 1008.71 1008.99 1009.32 1009.71 1010.15 1010.62 1011.13 1011.65
1011.13 1010.91 1010.65 1010.33 1009.98 1009.61 1009.25 1008.91 1008.61 1008.33 1008.08 1007.83 1007.57 1007.29 1006.98 1006.66 1006.33 1006.02 1005.77 1005.61 1005.55 1005.59 1005.74 1005.98 1006.27 1006.58 1006.89 1007.17 1007.40 1007.58 1007.72 1007.83 1007.94 1008.05 1008.20 1008.40 1008.64 1008.95 1009.32 1009.75 1010.24 1010.78 1011.37
1010.90 1010.66 1010.34 1009.97 1009.55 1009.12 1008.69 1008.30 1007.96 1007.67 1007.41 1007.17 1006.92 1006.66 1006.36 1006.04 1005.71 1005.38 1005.10 1004.89 1004.79 1004.80 1004.91 1005.13 1005.43 1005.77 1006.13 1006.47 1006.78 1007.05 1007.26 1007.44 1007.59 1007.73 1007.88 1008.05 1008.27 1008.55 1008.89 1009.30 1009.79 1010.35 1010.97
1010.68 1010.40 1010.04 1009.60 1009.11 1008.61 1008.13 1007.69 1007.31 1006.99 1006.73 1006.49 1006.25 1006.00 1005.71 1005.39 1005.05 1004.71 1004.40 1004.16 1004.02 1003.99 1004.08 1004.28 1004.59 1004.96 1005.36 1005.77 1006.16 1006.50 1006.80 1007.04 1007.24 1007.41 1007.57 1007.73 1007.93 1008.17 1008.48 1008.86 1009.33 1009.88 1010.52
1010.48 1010.16 1009.73 1009.23 1008.68 1008.11 1007.58 1007.09 1006.68 1006.34 1006.07 1005.83 1005.60 1005.35 1005.07 1004.75 1004.40 1004.05 1003.71 1003.45 1003.27 1003.21 1003.29 1003.48 1003.79 1004.19 1004.64 1005.10 1005.56 1005.98 1006.35 1006.66 1006.91 1007.12 1007.29 1007.45 1007.63 1007.85 1008.12 1008.47 1008.91 1009.43 1010.06
1010.28 1009.90 1009.42 1008.86 1008.25 1007.63 1007.05 1006.53 1006.09 1005.74 1005.45 1005.20 1004.97 1004.73 1004.45 1004.13 1003.78 1003.43 1003.09 1002.80 1002.61 1002.54 1002.60 1002.79 1003.10 1003.52 1004.00 1004.51 1005.02 1005.50 1005.93 1006.30 1006.60 1006.85 1007.04 1007.22 1007.39 1007.58 1007.82 1008.14 1008.53 1009.02 1009.60
1010.07 1009.63 1009.09 1008.48 1007.82 1007.17 1006.56 1006.01 1005.55 1005.18 1004.89 1004.64 1004.40 1004.16 1003.89 1003.58 1003.24 1002.89 1002.56 1002.28 1002.09 1002.01 1002.06 1002.25 1002.57 1002.99 1003.48 1004.02 1004.57 1005.09 1005.56 1005.97 1006.31 1006.59 1006.81 1006.99 1007.17 1007.35 1007.56 1007.84 1008.19 1008.62 1009.15
1009.81 1009.32 1008.73 1008.08 1007.39 1006.71 1006.08 1005.52 1005.06 1004.68 1004.38 1004.12 1003.89 1003.66 1003.40 1003.11 1002.79 1002.46 1002.15 1001.90 1001.72 1001.66 1001.72 1001.91 1002.22 1002.63 1003.12 1003.66 1004.20 1004.73 1005.22 1005.65 1006.01 1006.31 1006.55 1006.75 1006.93 1007.11 1007.31 1007.55 1007.86 1008.24 1008.71
1009.49 1008.95 1008.33 1007.64 1006.94 1006.25 1005.62 1005.06 1004.60 1004.22 1003.91 1003.66 1003.44 1003.21 1002.97 1002.71 1002.43 1002.15 1001.88 1001.67 1001.53 1001.49 1001.57 1001.75 1002.05 1002.45 1002.91 1003.41 1003.93 1004.44 1004.91 1005.33 1005.70 1006.01 1006.26 1006.47 1006.66 1006.84 1007.03 1007.26 1007.53 1007.87 1008.28
1009.13 1008.55 1007.89 1007.20 1006.49 1005.80 1005.18 1004.63 1004.17 1003.79 1003.49 1003.25 1003.03 1002.83 1002.62 1002.39 1002.16 1001.94 1001.73 1001.57 1001.48 1001.48 1001.57 1001.76 1002.04 1002.40 1002.82 1003.27 1003.73 1004.19 1004.62 1005.01 1005.36 1005.66 1005.93 1006.15 1006.35 1006.55 1006.74 1006.96 1007.21 1007.51 1007.87
1008.73 1008.12 1007.45 1006.74 1006.04 1005.38 1004.77 1004.23 1003.79 1003.42 1003.13 1002.89 1002.69 1002.50 1002.32 1002.14 1001.96 1001.80 1001.66 1001.56 1001.52 1001.55 1001.66 1001.85 1002.11 1002.43 1002.79 1003.18 1003.57 1003.96 1004.34 1004.69 1005.01 1005.30 1005.56 1005.80 1006.03 1006.24 1006.45 1006.67 1006.91 1007.19 1007.52
1008.32 1007.69 1007.02 1006.33 1005.64 1005.00 1004.41 1003.90 1003.47 1003.11 1002.83 1002.59 1002.40 1002.23 1002.08 1001.93 1001.80 1001.69 1001.61 1001.57 1001.58 1001.65 1001.78 1001.96 1002.19 1002.47 1002.77 1003.09 1003.41 1003.73 1004.05 1004.35 1004.65 1004.93 1005.20 1005.46 1005.71 1005.95 1006.18 1006.42 1006.67 1006.94 1007.25
1007.94 1007.31 1006.64 1005.97 1005.31 1004.70 1004.14 1003.65 1003.23 1002.88 1002.60 1002.37 1002.18 1002.02 1001.88 1001.76 1001.67 1001.60 1001.56 1001.56 1001.61 1001.70 1001.84 1002.01 1002.22 1002.45 1002.70 1002.95 1003.21 1003.48 1003.74 1004.02 1004.29 1004.57 1004.85 1005.14 1005.42 1005.70 1005.97 1006.24 1006.50 1006.78 1007.07
1007.61 1006.99 1006.35 1005.70 1005.08 1004.49 1003.96 1003.49 1003.09 1002.75 1002.46 1002.22 1002.03 1001.86 1001.72 1001.62 1001.54 1001.49 1001.47 1001.50 1001.56 1001.66 1001.80 1001.96 1002.14 1002.33 1002.53 1002.74 1002.95 1003.18 1003.41 1003.67 1003.94 1004.23 1004.54 1004.86 1005.18 1005.50 1005.81 1006.11 1006.41 1006.69 1006.98
1007.33 1006.74 1006.13 1005.52 1004.93 1004.38 1003.87 1003.42 1003.03 1002.69 1002.40 1002.15 1001.93 1001.75 1001.60 1001.49 1001.40 1001.35 1001.33 1001.36 1001.42 1001.51 1001.63 1001.77 1001.92 1002.09 1002.26 1002.43 1002.62 1002.82 1003.05 1003.30 1003.59 1003.90 1004.24 1004.60 1004.96 1005.33 1005.68 1006.02 1006.34 1006.64 1006.94
1007.12 1006.56 1005.98 1005.41 1004.85 1004.33 1003.85 1003.41 1003.03 1002.69 1002.38 1002.12 1001.88 1001.68 1001.51 1001.36 1001.25 1001.18 1001.15 1001.15 1001.19 1001.26 1001.35 1001.47 1001.60 1001.74 1001.88 1002.04 1002.22 1002.42 1002.65 1002.92 1003.22 1003.57 1003.94 1004.33 1004.74 1005.15 1005.54 1005.91 1006.25 1006.57 1006.88
1006.94 1006.42 1005.87 1005.33 1004.80 1004.30 1003.84 1003.42 1003.04 1002.69 1002.38 1002.10 1001.84 1001.62 1001.42 1001.24 1001.10 1001.00 1000.93 1000.90 1000.90 1000.94 1001.00 1001.09 1001.20 1001.31 1001.45 1001.60 1001.78 1001.99 1002.23 1002.52 1002.85 1003.22 1003.62 1004.05 1004.48 1004.91 1005.33 1005.72 1006.09 1006.43 1006.75
1006.78 1006.29 1005.77 1005.25 1004.74 1004.26 1003.80 1003.39 1003.01 1002.67 1002.35 1002.06 1001.79 1001.54 1001.32 1001.12 1000.95 1000.81 1000.70 1000.64 1000.61 1000.61 1000.64 1000.71 1000.79 1000.89 1001.02 1001.17 1001.36 1001.57 1001.83 1002.13 1002.48 1002.86 1003.28 1003.72 1004.17 1004.61 1005.04 1005.45 1005.83 1006.18 1006.51
1006.64 1006.17 1005.66 1005.15 1004.65 1004.17 1003.72 1003.31 1002.93 1002.59 1002.27 1001.98 1001.70 1001.45 1001.21 1000.99 1000.80 1000.64 1000.51 1000.42 1000.36 1000.33 1000.34 1000.38 1000.44 1000.54 1000.66 1000.81 1001.00 1001.22 1001.49 1001.79 1002.14 1002.53 1002.94 1003.38 1003.82 1004.26 1004.69 1005.09 1005.47 1005.83 1006.18
1006.51 1006.04 1005.54 1005.03 1004.53 1004.05 1003.60 1003.18 1002.81 1002.46 1002.15 1001.86 1001.60 1001.35 1001.11 1000.89 1000.70 1000.52 1000.38 1000.27 1000.19 1000.15 1000.14 1000.17 1000.23 1000.32 1000.44 1000.59 1000.78 1001.00 1001.26 1001.55 1001.89 1002.26 1002.65 1003.06 1003.48 1003.90 1004.31 1004.70 1005.07 1005.43 1005.78
1006.40 1005.94 1005.44 1004.92 1004.41 1003.92 1003.46 1003.05 1002.67 1002.34 1002.04 1001.76 1001.51 1001.27 1001.05 1000.84 1000.66 1000.49 1000.35 1000.24 1000.16 1000.11 1000.10 1000.13 1000.18 1000.27 1000.39 1000.54 1000.72 1000.94 1001.18 1001.46 1001.76 1002.10 1002.45 1002.82 1003.20 1003.58 1003.96 1004.33 1004.69 1005.04 1005.39
Thickness
5653 5649 5644 5640 5637 5633 5629 5626 5623 5621 5619 5617 5616 5615 5615 5615 5616 5616 5617 5618 5620 5622 5624 5627 5630 5635 5640 5645 5649 5654 5659 5663 5666 5672 5679 5684 5688 5691 5694 5697 5700 5702 5705
5646 5641 5636 5632 5628 5624 5620 5617 5614 5611 5609 5607 5605 5604 5603 5603 5604 5604 5605 5608 5609 5611 5613 5616 5620 5624 5628 5633 5638 5643 5648 5653 5657 5662 5667 5672 5677 5681 5684 5686 5689 5692 5695
5639 5633 5628 5623 5619 5615 5612 5608 5605 5601 5599 5596 5594 5593 5592 5591 5591 5592 5593 5595 5597 5600 5603 5605 5609 5612 5616 5621 5626 5631 5637 5643 5648 5653 5657 5662 5667 5671 5673 5675 5678 5681 5685
5631 5625 5620 5616 5611 5607 5603 5599 5595 5592 5588 5586 5583 5582 5580 5580 5579 5580 5580 5582 5584 5587 5591 5594 5598 5601 5605 5609 5614 5620 5625 5631 5636 5642 5646 5652 5656 5660 5663 5665 5666 5669 5673
5624 5618 5613 5609 5604 5599 5594 5590 5586 5581 5579 5575 5572 5570 5568 5567 5567 5567 5567 5568 5570 5572 5576 5580 5585 5590 5595 5599 5604 5608 5613 5619 5625 5630 5635 5641 5646 5650 5655 5658 5659 5660 5663
5617 5611 5607 5601 5596 5591 5586 5581 5576 5571 5568 5564 5561 5558 5556 5556 5556 5555 5553 5553 5555 5557 5561 5566 5571 5577 5583 5588 5593 5598 5604 5609 5614 5620 5626 5631 5637 5643 5647 5649 5651 5653 5656
5610 5605 5600 5594 5589 5583 5578 5573 5567 5562 5558 5554 5551 5548 5546 5544 5543 5542 5541 5540 5540 5543 5546 5551 5557 5565 5569 5574 5580 5586 5592 5599 5606 5612 5617 5623 5629 5636 5639 5641 5645 5649 5653
5604 5599 5593 5588 5582 5577 5571 5565 5560 5554 5550 5546 5543 5540 5537 5535 5533 5531 5529 5528 5528 5530 5534 5538 5543 5549 5556 5560 5565 5571 5578 5586 5594 5601 5609 5615 5620 5626 5631 5635 5637 5639 5642
5599 5593 5588 5582 5576 5571 5565 5559 5554 5549 5544 5540 5537 5533 5530 5527 5525 5522 5520 5517 5518 5520 5523 5528 5532 5538 5545 5549 5553 5558 5564 5571 5579 5588 5596 5602 5609 5615 5621 5624 5627 5630 5633
5594 5588 5583 5577 5571 5565 5560 5554 5549 5544 5540 5536 5532 5528 5524 5521 5518 5515 5512 5509 5509 5511 5514 5519 5524 5529 5534 5537 5542 5547 5552 5559 5566 5574 5581 5589 5597 5603 5610 5616 5622 5625 5628
5590 5584 5578 5572 5566 5562 5556 5551 5545 5540 5536 5531 5527 5524 5519 5516 5513 5510 5507 5504 5504 5504 5507 5511 5516 5521 5524 5529 5534 5539 5546 5550 5555 5562 5569 5577 5584 5592 5599 5606 5613 5619 5623
5585 5579 5573 5568 5563 5560 5552 5547 5542 5536 5531 5526 5521 5517 5514 5511 5508 5506 5504 5501 5501 5500 5502 5505 5510 5514 5518 5522 5527 5532 5537 5541 5545 5551 5557 5564 5573 5581 5589 5597 5603 5610 5616
5580 5574 5569 5564 5559 5554 5548 5543 5538 5532 5526 5521 5516 5512 5509 5506 5504 5502 5501 5499 5498 5497 5499 5502 5506 5510 5512 5516 5521 5525 5529 5532 5537 5542 5549 5556 5564 5572 5579 5586 5593 5599 5605
5575 5570 5566 5560 5556 5552 5546 5541 5535 5529 5523 5517 5512 5508 5505 5502 5499 5497 5496 5495 5495 5495 5496 5499 5502 5505 5508 5512 5515 5519 5524 5528 5532 5537 5542 5548 5555 5562 5570 5577 5584 5590 5594
5572 5567 5562 5557 5553 5549 5544 5539 5533 5528 5520 5515 5510 5505 5501 5499 5497 5494 5493 5493 5492 5493 5493 5495 5497 5500 5503 5506 5510 5514 5518 5522 5527 5532 5536 5541 5547 5555 5562 5570 5577 5582 5588
5569 5564 5560 5555 5551 5547 5542 5538 5533 5527 5522 5516 5510 5505 5501 5498 5496 5495 5494 5493 5492 5492 5493 5494 5496 5499 5503 5506 5509 5512 5515 5519 5524 5528 5532 5537 5543 5549 5556 5562 5569 5576 5582
5566 5562 5558 5554 5550 5546 5541 5536 5531 5527 5522 5517 5512 5507 5502 5500 5497 5495 5494 5493 5493 5493 5494 5496 5498 5500 5504 5507 5510 5513 5515 5519 5522 5526 5530 5534 5539 5545 5550 5556 5562 5570 5576
5566 5562 5558 5553 5549 5545 5540 5535 5530 5525 5521 5518 5514 5509 5505 5501 5498 5496 5494 5493 5493 5494 5496 5498 5500 5503 5506 5508 5511 5514 5517 5519 5522 5526 5529 5533 5537 5542 5546 5552 5558 5565 5571
5564 5560 5557 5553 5549 5545 5540 5535 5530 5526 5521 5518 5514 5511 5507 5503 5500 5497 5495 5495 5496 5497 5499 5501 5503 5506 5508 5511 5513 5516 5519 5522 5524 5527 5530 5534 5537 5541 5545 5549 5554 5559 5565
5563 5561 5558 5554 5549 5545 5541 5536 5531 5527 5523 5519 5516 5513 5509 5505 5502 5501 5499 5498 5499 5500 5502 5504 5506 5509 5511 5513 5516 5518 5521 5524 5526 5529 5532 5535 5538 5541 5545 5548 5552 5556 5561
5560 5558 5557 5553 5548 5545 5541 5537 5533 5530 5526 5522 5520 5518 5514 5510 5508 5506 5505 5504 5504 5505 5506 5507 5509 5511 5513 5515 5518 5520 5523 5525 5528 5530 5533 5535 5538 5541 5544 5547 5550 5554 5558
5558 5555 5553 5551 5549 5546 5542 5539 5536 5533 5530 5527 5524 5522 5519 5515 5513 5512 5512 5511 5511 5512 5512 5513 5514 5516 5518 5519 5522 5523 5525 5527 5529 5531 5533 5535 5537 5540 5542 5545 5548 5551 5555
5556 5554 5553 5551 5549 5547 5544 5541 5538 5536 5533 5530 5527 5524 5523 5520 5519 5518 5518 5517 5517 5517 5518 5518 5518 5520 5522 5523 5525 5527 5529 5531 5532 5533 5534 5535 5537 5540 5542 5545 5548 5551 5554
5554 5553 5551 5549 5548 5546 5543 5542 5540 5538 5535 5532 5530 5527 5526 5525 5524 5523 5523 5522 5521 5521 5521 5522 5523 5524 5525 5526 5528 5529 5531 5533 5534 5535 5536 5537 5539 5541 5542 5544 5548 5551 5554
5552 5551 5549 5548 5546 5545 5544 5543 5541 5539 5537 5535 5532 5530 5529 5527 5527 5526 5525 5524 5524 5524 5524 5524 5525 5526 5527 5528 5529 5530 5531 5533 5534 5536 5537 5538 5539 5541 5543 5545 5548 5551 5553
5550 5549 5547 5546 5545 5544 5543 5542 5541 5540 5538 5537 5535 5533 5531 5530 5529 5528 5527 5526 5525 5525 5526 5526 5526 5527 5527 5527 5528 5529 5530 5532 5533 5535 5537 5539 5540 5542 5544 5547 5549 5551 5554